FENGYUN 1C DEB

Satellite information

Favourite Embed

Satellite Type and Status

DEBRISIN ORBIT

Key statistics

Satellite FENGYUN 1C DEB at a glance.

Uptime

9493

Days in orbit

Revolutions

≈ 14.4

Per day

Orbit

SSO

Sun Synchronous Orbit

Inclination

98.5

Latest

Satellite identification and parameters

Extended collection of information and parameters for FENGYUN 1C DEB.

Object identification

Identified? True

Debris? True

Object name: FENGYUN 1C DEB

International designator: 1999-025CNL

Object number (NORAD): 31959

Object ID (CCSDS): 31959

Country: PEOPLES REPUBLIC OF CHINA (PRC)

Current information (Y/N): Y

RCS size: SMALL

Orbital parameters

Period: 99.813 minutes

Inclination: 98.5212 deg

SMA: 7127.746 km

Apoapsis: 772.568 km

Periapsis: 726.654 km

RAAN: 356.0635 deg

Eccentricy: 0.0032208

Argument of periapsis: 101.6605 deg

Mean anomaly: 258.8202 deg

Mean motion: 14.42694692 rev/day

Mean motion (dot): 0.00009647 rev/day2

B* drag term: 0.0028905 1/REarth

Two-line elements (TLE)

Creation date: May 6, 2025, 3:54 a.m.

Reference frame: TEME

Reference center: EARTH

Epoch: May 5, 2025, 9:23 a.m. UTC

TLE line 0: 0 FENGYUN 1C DEB

TLE line 1: 1 31959U 99025CNL 25125.39109434 .00009647 00000-0 28905-2 0 9992

TLE line 2: 2 31959 98.5212 356.0635 0032208 101.6605 258.8202 14.42694692611583

Live tracking on map

Real-time ground track for satellite FENGYUN 1C DEB.

In-orbit conjunctions

A list of the most updated potential collisions computed for object FENGYUN 1C DEB.

Target Orbit TCA Probability of collision Miss distance Type
FENGYUN 1C DEB SSO 2025-01-09 08:29:19 0.0001411429 232.0 (m) DEBRIS
SL-8 R/B LEO 2024-11-10 18:59:35 0.001500462 487.0 (m) ROCKET BODY
CZ-6A DEB LEO 2024-10-11 12:14:24 0.000507487 136.0 (m) DEBRIS

Associated space launch

Chinese polar orbiting meteorological satellite

FENGYUN 1C DEB was lifted into orbit during the mission ‘Long March 4B | Feng Yun 1C’, on board a Long March 4B space rocket.

The launch took place on May 10, 1999, 1:33 a.m. from Launch Complex 7.

For more information about the launch, click the button.

Launch to space Long March 4B | Feng Yun 1C
Long March 4B | Feng Yun 1C

Agency: N/A

Status: Launch Successful

Launch date: May 10, 1999, 1:33 a.m. UTC

Rocket: Long March 4B

Launch pad: Launch Complex 7

Location: Taiyuan Satellite Launch Center, People's Republic of China

...

Latest news about this satellite

There are no fresh news available about this satellite. Check back as we update our databases every day.


Newsletter sign-up

Weekly statistics, charts and insights to help you stay on top of the space industry.